Cloud_Cover
100 70 32 80 25 5 5 6 13 5 31 60 5 33 5 37 100 100 32 0 5 0 0 6 0 0 0 0 1 7 0 0 0
100 100 98 8 20 80 5 5 5 5 69 80 3 55 62 100 100 100 100 22 0 25 0 0 2 0 0 0 2 3 6 6 4
82 100 100 74 5 5 12 5 5 5 22 79 5 5 5 97 98 100 100 50 0 68 0 0 0 0 0 0 0 5 69 0 9
100 100 100 100 35 7 6 29 5 44 99 100 75 69 4 96 100 100 100 11 0 1 0 0 32 3 0 0 1 8 4 12 6
100 100 100 100 100 34 5 6 9 57 100 100 98 27 5 6 99 100 100 41 0 0 0 42 16 2 0 48 3 2 2 0 2
100 100 100 100 87 98 8 27 99 100 100 98 85 99 23 15 93 100 100 44 2 0 0 8 14 0 2 53 1 7 7 2 3
100 100 100 100 100 100 98 71 36 90 100 56 98 100 61 100 69 49 100 15 0 0 0 3 22 1 1 85 9 9 6 1 0
100 100 100 100 100 100 99 100 96 96 89 60 19 99 38 50 76 82 96 5 4 0 31 12 79 2 23 92 62 1 0 0 0
100 100 100 100 100 100 100 98 100 100 100 89 8 75 91 88 67 98 4 13 4 12 100 58 80 1 9 61 78 0 0 0 0
100 100 100 100 100 100 100 100 100 100 100 95 86 87 100 100 82 42 90 58 5 5 100 100 91 26 0 16 27 47 0 0 0
100 100 100 100 100 100 100 100 100 100 100 100 100 60 71 100 98 16 100 5 10 5 91 100 100 62 3 14 16 11 0 0 0
4 100 100 100 100 100 100 100 100 100 100 100 100 100 100 100 98 49 90 5 5 12 1 100 100 98 2 5 54 32 18 0 0
0 46 100 100 100 100 100 100 100 100 100 100 100 100 100 100 100 36 74 92 91 21 100 55 100 100 1 5 46 37 60 3 0
0 0 85 100 100 100 100 100 100 100 100 100 100 100 100 100 100 96 37 100 98 45 58 5 66 15 5 5 16 54 2 24 1
0 0 0 4 100 100 100 100 100 100 100 100 100 100 100 100 100 93 22 100 100 100 85 5 6 38 45 4 10 76 99 5 0
0 0 3 0 0 100 100 100 100 100 100 100 100 100 100 100 94 100 88 94 100 100 100 71 24 84 100 5 18 82 70 3 1
5 5 3 4 4 6 99 100 100 100 100 100 100 100 100 100 98 100 100 100 84 94 90 100 93 98 100 42 16 57 7 0 0
0 0 0 0 4 5 5 100 100 100 100 100 100 100 100 100 100 100 100 100 85 58 32 95 100 100 100 45 5 91 100 96 36
0 0 0 0 5 5 5 48 100 100 100 100 100 100 100 100 100 100 100 100 100 73 81 55 49 100 100 41 82 36 100 100 46
5 5 5 5 5 5 5 5 95 100 100 100 100 100 100 100 100 100 100 98 100 78 13 5 5 100 100 100 100 72 1 50 42